When you browse on this site, cookies collect data to enhance your experience and personalize the content and advertising you see.
Visit our Privacy Policy to learn more. By continuing to use the site, you agree to this use of cookies and data.

Stündliche Wetter Dangriga

Heute, 15 Juli, Mittwoch

Zeit Temperatur Niederschläge Wind Luftdruck Luftfeuchtigkeit
00:00 +27°C° 0.3 mm 6 m/S 760 mmHg 99%
01:00 +27°C° 0.2 mm 6 m/S 760 mmHg 99%
02:00 +27°C° 0.2 mm 6 m/S 759 mmHg 98%
03:00 +27°C° 0.2 mm 6 m/S 759 mmHg 98%
04:00 +27°C° 0.2 mm 6 m/S 759 mmHg 98%
05:00 +27°C° 0.2 mm 6 m/S 759 mmHg 98%
06:00 +27°C° 0.2 mm 6 m/S 759 mmHg 98%
07:00 +28°C° 0.2 mm 5 m/S 760 mmHg 94%
08:00 +29°C° 0.2 mm 5 m/S 760 mmHg 90%
09:00 +30°C° 0.2 mm 5 m/S 761 mmHg 86%
10:00 +32°C° 0.3 mm 5 m/S 760 mmHg 82%
11:00 +32°C° 0.3 mm 5 m/S 760 mmHg 78%
12:00 +33°C° 0.3 mm 4 m/S 760 mmHg 74%
13:00 +33°C° 0.4 mm 4 m/S 760 mmHg 75%
14:00 +32°C° 0.4 mm 4 m/S 759 mmHg 77%
15:00 +32°C° 0.4 mm 5 m/S 759 mmHg 79%
16:00 +30°C° 0.1 mm 5 m/S 759 mmHg 84%
17:00 +29°C° 0.1 mm 5 m/S 759 mmHg 89%
18:00 +29°C° 0.1 mm 5 m/S 759 mmHg 94%
19:00 +28°C° 0.3 mm 5 m/S 760 mmHg 95%
20:00 +28°C° 0.3 mm 5 m/S 760 mmHg 97%
21:00 +27°C° 0.3 mm 5 m/S 760 mmHg 99%
22:00 +27°C° 0.1 mm 5 m/S 760 mmHg 99%
23:00 +27°C° 0.1 mm 5 m/S 760 mmHg 99%

Morgen, 16 Juli, Donnerstag

Zeit Temperatur Niederschläge Wind Luftdruck Luftfeuchtigkeit
00:00 +27°C° 0.1 mm 5 m/S 760 mmHg 99%
01:00 +27°C° 0.1 mm 4 m/S 760 mmHg 98%
02:00 +27°C° 0.1 mm 4 m/S 759 mmHg 98%
03:00 +26°C° 0.1 mm 4 m/S 759 mmHg 98%
04:00 +26°C° 0 mm 4 m/S 759 mmHg 98%
05:00 +26°C° 0 mm 3 m/S 759 mmHg 98%
06:00 +26°C° 0 mm 3 m/S 760 mmHg 98%
07:00 +28°C° 0 mm 3 m/S 760 mmHg 88%
08:00 +30°C° 0 mm 3 m/S 760 mmHg 79%
09:00 +33°C° 0 mm 4 m/S 761 mmHg 69%
10:00 +34°C° 0 mm 3 m/S 761 mmHg 64%
11:00 +35°C° 0 mm 3 m/S 760 mmHg 59%
12:00 +36°C° 0 mm 3 m/S 760 mmHg 53%
13:00 +35°C° 0 mm 3 m/S 760 mmHg 54%
14:00 +35°C° 0 mm 3 m/S 759 mmHg 56%
15:00 +35°C° 0 mm 3 m/S 759 mmHg 57%
16:00 +34°C° 0 mm 3 m/S 759 mmHg 64%
17:00 +31°C° 0 mm 3 m/S 759 mmHg 72%
18:00 +30°C° 0 mm 3 m/S 759 mmHg 80%
19:00 +29°C° 0.1 mm 3 m/S 759 mmHg 85%
20:00 +28°C° 0.1 mm 3 m/S 760 mmHg 89%
21:00 +27°C° 0.1 mm 3 m/S 760 mmHg 93%
22:00 +26°C° 0.9 mm 3 m/S 760 mmHg 95%
23:00 +26°C° 0.9 mm 3 m/S 760 mmHg 96%

übermorgen, 17 Juli, Freitag

Zeit Temperatur Niederschläge Wind Luftdruck Luftfeuchtigkeit
00:00 +26°C° 0.9 mm 3 m/S 760 mmHg 98%
01:00 +26°C° 1.2 mm 3 m/S 760 mmHg 98%
02:00 +26°C° 1.2 mm 2 m/S 759 mmHg 98%
03:00 +26°C° 1.2 mm 2 m/S 759 mmHg 98%
04:00 +26°C° 0.6 mm 2 m/S 759 mmHg 97%
05:00 +26°C° 0.6 mm 2 m/S 759 mmHg 97%
06:00 +26°C° 0.6 mm 2 m/S 759 mmHg 96%
07:00 +28°C° 0.1 mm 2 m/S 759 mmHg 85%
08:00 +30°C° 0.1 mm 1 m/S 760 mmHg 74%
09:00 +33°C° 0.1 mm 1 m/S 760 mmHg 63%
10:00 +34°C° 0.1 mm 2 m/S 760 mmHg 61%
11:00 +35°C° 0.1 mm 2 m/S 760 mmHg 60%
12:00 +35°C° 0.1 mm 2 m/S 760 mmHg 58%
13:00 +35°C° 0.1 mm 3 m/S 759 mmHg 58%
14:00 +35°C° 0.1 mm 3 m/S 759 mmHg 59%
15:00 +35°C° 0.1 mm 4 m/S 759 mmHg 59%
16:00 +33°C° 0 mm 4 m/S 758 mmHg 66%
17:00 +31°C° 0 mm 3 m/S 758 mmHg 73%
18:00 +30°C° 0 mm 3 m/S 758 mmHg 81%
19:00 +29°C° 0 mm 3 m/S 758 mmHg 85%
20:00 +27°C° 0 mm 3 m/S 759 mmHg 90%
21:00 +26°C° 0 mm 3 m/S 759 mmHg 95%
22:00 +26°C° 0 mm 2 m/S 759 mmHg 96%
23:00 +26°C° 0 mm 2 m/S 759 mmHg 97%

18 Juli, Samstag

Zeit Temperatur Niederschläge Wind Luftdruck Luftfeuchtigkeit
00:00 +26°C° 0 mm 2 m/S 759 mmHg 98%
01:00 +26°C° 0 mm 2 m/S 759 mmHg 98%
02:00 +26°C° 0 mm 1 m/S 758 mmHg 98%
03:00 +26°C° 0 mm 1 m/S 758 mmHg 98%
04:00 +26°C° 0.1 mm 1 m/S 758 mmHg 97%
05:00 +26°C° 0.1 mm 1 m/S 758 mmHg 96%
06:00 +26°C° 0.1 mm 1 m/S 758 mmHg 96%
07:00 +28°C° 0.3 mm 1 m/S 759 mmHg 87%
08:00 +30°C° 0.3 mm 1 m/S 759 mmHg 78%
09:00 +32°C° 0.3 mm 1 m/S 760 mmHg 68%
10:00 +32°C° 0.1 mm 2 m/S 759 mmHg 65%
11:00 +34°C° 0.1 mm 2 m/S 759 mmHg 61%
12:00 +35°C° 0.1 mm 3 m/S 759 mmHg 57%
13:00 +35°C° 0 mm 3 m/S 759 mmHg 59%
14:00 +35°C° 0 mm 3 m/S 758 mmHg 61%
15:00 +34°C° 0 mm 3 m/S 758 mmHg 63%
16:00 +33°C° 0 mm 3 m/S 758 mmHg 69%
17:00 +30°C° 0 mm 3 m/S 758 mmHg 74%
18:00 +29°C° 0 mm 3 m/S 758 mmHg 80%
19:00 +28°C° 0 mm 3 m/S 758 mmHg 85%
20:00 +27°C° 0 mm 3 m/S 759 mmHg 89%
21:00 +25°C° 0 mm 3 m/S 759 mmHg 94%
22:00 +25°C° 0.1 mm 3 m/S 759 mmHg 94%
23:00 +25°C° 0.1 mm 3 m/S 759 mmHg 95%

19 Juli, Sonntag

Zeit Temperatur Niederschläge Wind Luftdruck Luftfeuchtigkeit
00:00 +25°C° 0.1 mm 3 m/S 759 mmHg 95%
01:00 +25°C° 0.1 mm 3 m/S 759 mmHg 95%
02:00 +25°C° 0.1 mm 3 m/S 758 mmHg 96%
03:00 +26°C° 0.1 mm 3 m/S 758 mmHg 96%
04:00 +26°C° 0.6 mm 3 m/S 758 mmHg 96%
05:00 +26°C° 0.6 mm 3 m/S 758 mmHg 96%
06:00 +26°C° 0.6 mm 3 m/S 758 mmHg 96%
07:00 +27°C° 0.4 mm 3 m/S 759 mmHg 91%
08:00 +29°C° 0.4 mm 3 m/S 759 mmHg 85%
09:00 +30°C° 0.4 mm 3 m/S 760 mmHg 80%
10:00 +31°C° 0.7 mm 3 m/S 759 mmHg 80%
11:00 +31°C° 0.7 mm 3 m/S 759 mmHg 80%
12:00 +31°C° 0.7 mm 3 m/S 759 mmHg 81%
13:00 +31°C° 0.5 mm 3 m/S 758 mmHg 79%
14:00 +31°C° 0.5 mm 3 m/S 758 mmHg 77%
15:00 +32°C° 0.5 mm 4 m/S 758 mmHg 75%
16:00 +30°C° 0.6 mm 3 m/S 758 mmHg 82%
17:00 +29°C° 0.6 mm 3 m/S 758 mmHg 89%
18:00 +28°C° 0.6 mm 3 m/S 758 mmHg 96%
19:00 +27°C° 0.5 mm 3 m/S 759 mmHg 96%
20:00 +26°C° 0.5 mm 3 m/S 759 mmHg 97%
21:00 +26°C° 0.5 mm 2 m/S 760 mmHg 98%
22:00 +26°C° 0 mm 2 m/S 759 mmHg 98%
23:00 +26°C° 0 mm 3 m/S 759 mmHg 98%

20 Juli, Montag

Zeit Temperatur Niederschläge Wind Luftdruck Luftfeuchtigkeit
00:00 +26°C° 0 mm 3 m/S 759 mmHg 98%
01:00 +25°C° 0 mm 2 m/S 758 mmHg 98%
02:00 +25°C° 0 mm 2 m/S 758 mmHg 98%
03:00 +25°C° 0 mm 1 m/S 758 mmHg 98%
04:00 +25°C° 0 mm 1 m/S 758 mmHg 98%
05:00 +25°C° 0 mm 1 m/S 758 mmHg 98%
06:00 +25°C° 0 mm 1 m/S 758 mmHg 98%
07:00 +27°C° 0 mm 2 m/S 759 mmHg 87%
08:00 +29°C° 0 mm 2 m/S 759 mmHg 77%
09:00 +31°C° 0 mm 2 m/S 760 mmHg 66%
10:00 +32°C° 0 mm 2 m/S 760 mmHg 60%
11:00 +34°C° 0 mm 2 m/S 759 mmHg 54%
12:00 +35°C° 0 mm 2 m/S 759 mmHg 49%
13:00 +35°C° 0 mm 3 m/S 759 mmHg 49%
14:00 +35°C° 0 mm 3 m/S 758 mmHg 49%
15:00 +35°C° 0 mm 3 m/S 757 mmHg 50%
16:00 +33°C° 0 mm 3 m/S 757 mmHg 61%
17:00 +30°C° 0 mm 3 m/S 757 mmHg 72%
18:00 +29°C° 0 mm 3 m/S 757 mmHg 83%
19:00 +28°C° 0 mm 3 m/S 758 mmHg 88%
20:00 +26°C° 0 mm 3 m/S 758 mmHg 93%
21:00 +25°C° 0 mm 3 m/S 759 mmHg 98%
22:00 +26°C° 0 mm 3 m/S 758 mmHg 98%
23:00 +26°C° 0 mm 3 m/S 758 mmHg 97%
Mehr zeigen